Simultaneous Nadir Overpasses (SNOs) Predictions

Prediction of SNOs between GOES-17 and LANDSAT-8 Satellite Orbit:

Table of predicted SNOs for the next 14.0 days since TLE Epoch: 11/12/2022
Index Date Time (GOES-17) GOES-17 Lat,Lon LANDSAT-8 Lat,Lon Distance(km) Time Diff (sec)
1 11/13/2022 07:11:20 0.03,-137.33 0.51,-135.02 262.18 80
2 11/13/2022 19:32:34 -0.03,-137.34 0.60,-140.17 323.26 80
3 11/15/2022 19:23:01 -0.02,-137.32 -0.02,-137.21 12.79 80
4 11/17/2022 19:10:49 -0.02,-137.31 -0.66,-134.25 348.17 80
5 11/18/2022 07:32:12 0.01,-137.30 -0.42,-139.44 243.22 80
6 11/20/2022 07:17:18 0.01,-137.28 0.17,-136.47 91.81 80
7 11/20/2022 19:38:33 -0.01,-137.28 0.93,-141.62 494.21 80
8 11/22/2022 07:05:04 0.01,-137.25 0.78,-133.50 426.13 80
9 11/22/2022 19:26:19 -0.01,-137.25 0.32,-138.65 160.12 80
10 11/24/2022 19:16:45 -0.00,-137.21 -0.30,-135.69 173.11 80
11 11/25/2022 07:38:09 -0.00,-137.19 -0.76,-140.88 418.79 80
